Location: Dealu Mare
(46.0500°N, 22.8167°E)
Time: 21:30:37
(UTC+00:00)

Nadezhda 3 Rocket - Pass Details

Date: 15 January 2026
Orbit: 956 x 998 km, 82.9° (Epoch: 10 February)

Event Time Altitude Azimuth Distance (km) Brightness Sun altitude
Rises 04:12:26 0° 351° (N) 3,672 6.8 -19.4°
Reaches altitude 10° 04:14:56 10° 352° (N) 2,727 6.2 -18.9°
Maximum altitude 04:21:12 86° 80° (E) 988 4.0 -17.9°
Drops below altitude 10° 04:27:30 10° 172° (S) 2,737 6.6 -16.8°
Sets 04:30:01 0° 173° (S) 3,687 7.3 -16.4°
